TimeCST,TemperatureF,Dew PointF,Humidity,Sea Level PressureIn,VisibilityMPH,Wind Direction,Wind SpeedMPH,Gust SpeedMPH,PrecipitationIn,Events,Conditions,WindDirDegrees,DateUTC
12:15 AM,53.6,46.4,77,29.87,10.0,NNW,15.0,-,N/A,,Overcast,340,2012-12-10 06:15:00
12:35 AM,51.8,44.6,76,29.85,10.0,North,15.0,-,N/A,,Overcast,360,2012-12-10 06:35:00
1:15 AM,51.8,44.6,76,29.85,10.0,NNW,18.4,-,N/A,,Overcast,340,2012-12-10 07:15:00
1:35 AM,50.0,42.8,76,29.84,10.0,North,19.6,25.3,N/A,,Overcast,350,2012-12-10 07:35:00
1:55 AM,50.0,42.8,76,29.85,10.0,NNW,20.7,25.3,N/A,,Overcast,340,2012-12-10 07:55:00
2:15 AM,50.0,42.8,76,29.85,10.0,North,17.3,-,N/A,,Overcast,350,2012-12-10 08:15:00
2:55 AM,48.2,41.0,76,29.88,10.0,North,15.0,-,N/A,,Overcast,350,2012-12-10 08:55:00
3:16 AM,48.2,41.0,76,29.87,10.0,North,13.8,-,N/A,,Overcast,350,2012-12-10 09:16:00
3:35 AM,48.2,39.2,71,29.88,10.0,North,15.0,19.6,N/A,,Overcast,350,2012-12-10 09:35:00
3:55 AM,48.2,39.2,71,29.85,10.0,North,13.8,-,N/A,,Overcast,360,2012-12-10 09:55:00
4:35 AM,48.2,39.2,71,29.87,10.0,NNW,16.1,-,N/A,,Overcast,340,2012-12-10 10:35:00
4:55 AM,46.4,39.2,76,29.87,10.0,North,12.7,17.3,N/A,,Overcast,350,2012-12-10 10:55:00
5:35 AM,46.4,37.4,71,29.90,10.0,NNW,16.1,-,N/A,,Overcast,330,2012-12-10 11:35:00
5:55 AM,44.6,35.6,71,29.88,10.0,NNW,20.7,-,N/A,,Overcast,340,2012-12-10 11:55:00
6:35 AM,42.8,35.6,76,29.90,10.0,NNW,19.6,-,N/A,,Overcast,330,2012-12-10 12:35:00
6:55 AM,42.8,33.8,70,29.91,10.0,NNW,19.6,26.5,N/A,,Overcast,330,2012-12-10 12:55:00
7:35 AM,39.2,30.2,70,29.95,10.0,NW,26.5,31.1,N/A,,Overcast,320,2012-12-10 13:35:00
7:55 AM,37.4,26.6,65,29.97,10.0,NNW,20.7,29.9,N/A,,Mostly Cloudy,330,2012-12-10 13:55:00
8:15 AM,37.4,26.6,65,29.99,10.0,NW,19.6,-,N/A,,Overcast,320,2012-12-10 14:15:00
8:55 AM,37.4,26.6,65,29.98,10.0,NNW,15.0,-,N/A,,Overcast,330,2012-12-10 14:55:00
9:15 AM,39.2,26.6,61,29.98,10.0,NW,17.3,23.0,N/A,,Mostly Cloudy,320,2012-12-10 15:15:00
9:36 AM,39.2,26.6,61,29.99,10.0,NW,20.7,-,N/A,,Scattered Clouds,320,2012-12-10 15:36:00
9:55 AM,39.2,26.6,61,30.00,10.0,NW,16.1,-,N/A,,Clear,320,2012-12-10 15:55:00
10:15 AM,39.2,24.8,56,30.01,10.0,NNW,19.6,-,N/A,,Partly Cloudy,330,2012-12-10 16:15:00
10:35 AM,39.2,26.6,61,30.01,10.0,NW,17.3,-,N/A,,Clear,320,2012-12-10 16:35:00
10:55 AM,39.2,26.6,61,30.01,10.0,NW,16.1,20.7,N/A,,Clear,320,2012-12-10 16:55:00
11:15 AM,41.0,26.6,57,30.00,10.0,NNW,13.8,-,N/A,,Scattered Clouds,340,2012-12-10 17:15:00
11:35 AM,39.2,26.6,61,30.00,10.0,NW,13.8,-,N/A,,Overcast,320,2012-12-10 17:35:00
11:56 AM,41.0,26.6,57,29.99,10.0,NW,16.1,20.7,N/A,,Overcast,310,2012-12-10 17:56:00
12:15 PM,41.0,26.6,57,29.98,10.0,NW,17.3,-,N/A,,Overcast,310,2012-12-10 18:15:00
12:35 PM,39.2,26.6,61,29.98,10.0,NW,13.8,-,N/A,,Overcast,310,2012-12-10 18:35:00
1:15 PM,39.2,26.6,61,29.98,10.0,NW,17.3,20.7,N/A,,Overcast,310,2012-12-10 19:15:00
1:35 PM,39.2,26.6,61,29.98,10.0,NW,12.7,-,N/A,,Overcast,310,2012-12-10 19:35:00
2:15 PM,39.2,24.8,56,29.98,10.0,NNW,15.0,-,N/A,,Scattered Clouds,330,2012-12-10 20:15:00
2:35 PM,41.0,26.6,57,29.99,10.0,NW,15.0,20.7,N/A,,Clear,320,2012-12-10 20:35:00
2:55 PM,41.0,24.8,53,29.99,10.0,NW,11.5,19.6,N/A,,Clear,310,2012-12-10 20:55:00
3:16 PM,41.0,24.8,53,30.00,10.0,NW,13.8,17.3,N/A,,Clear,320,2012-12-10 21:16:00
3:35 PM,41.0,24.8,53,30.00,10.0,NW,16.1,-,N/A,,Clear,320,2012-12-10 21:35:00
3:55 PM,39.2,24.8,56,30.01,10.0,NNW,11.5,-,N/A,,Clear,330,2012-12-10 21:55:00
4:35 PM,39.2,24.8,56,30.01,10.0,NNW,8.1,-,N/A,,Clear,330,2012-12-10 22:35:00
4:56 PM,39.2,26.6,61,30.01,10.0,NNW,11.5,-,N/A,,Clear,340,2012-12-10 22:56:00
5:15 PM,37.4,26.6,65,30.02,10.0,NNW,10.4,-,N/A,,Clear,340,2012-12-10 23:15:00
5:35 PM,37.4,24.8,60,30.03,10.0,NNW,9.2,-,N/A,,Clear,340,2012-12-10 23:35:00
5:56 PM,37.4,24.8,60,30.04,10.0,NNW,9.2,-,N/A,,Clear,340,2012-12-10 23:56:00
6:15 PM,37.4,26.6,65,30.04,10.0,North,9.2,-,N/A,,Clear,350,2012-12-11 00:15:00
6:35 PM,35.6,26.6,70,30.05,10.0,North,10.4,-,N/A,,Clear,350,2012-12-11 00:35:00
7:15 PM,35.6,24.8,65,30.05,10.0,North,12.7,-,N/A,,Clear,360,2012-12-11 01:15:00
7:35 PM,35.6,24.8,65,30.06,10.0,North,9.2,-,N/A,,Clear,360,2012-12-11 01:35:00
7:55 PM,35.6,26.6,70,30.07,10.0,North,9.2,-,N/A,,Clear,10,2012-12-11 01:55:00
8:15 PM,33.8,23.0,65,30.07,10.0,North,13.8,17.3,N/A,,Clear,360,2012-12-11 02:15:00
8:35 PM,-9999,-9999,N/A,30.08,10.0,North,9.2,-,N/A,,Clear,10,2012-12-11 02:35:00
8:55 PM,33.8,21.2,60,30.09,10.0,North,12.7,-,N/A,,Clear,10,2012-12-11 02:55:00
9:16 PM,33.8,21.2,60,30.10,10.0,North,11.5,-,N/A,,Clear,10,2012-12-11 03:16:00
9:35 PM,33.8,21.2,60,30.10,10.0,North,12.7,-,N/A,,Clear,360,2012-12-11 03:35:00
9:55 PM,32.0,21.2,64,30.10,10.0,North,15.0,-,N/A,,Clear,360,2012-12-11 03:55:00
10:15 PM,32.0,21.2,64,30.11,10.0,North,12.7,-,N/A,,Clear,360,2012-12-11 04:15:00
10:55 PM,30.2,21.2,69,30.13,10.0,North,8.1,-,N/A,,Clear,360,2012-12-11 04:55:00
11:15 PM,30.2,21.2,69,30.13,10.0,North,8.1,-,N/A,,Clear,350,2012-12-11 05:15:00
11:35 PM,30.2,21.2,69,30.13,10.0,North,8.1,-,N/A,,Clear,350,2012-12-11 05:35:00
11:55 PM,30.2,21.2,69,30.13,10.0,North,6.9,-,N/A,,Clear,360,2012-12-11 05:55:00